GW4735 Weather Reports


time (UTC)temp
C
wind
direction
speed
KPH
gust
KPH
rain 1hr
cm
rain 24hr
cm
rain mn
cm
humidity
%
barometer
mb
20260504210101 26 189 3.2 17.7 0.00 0.00 0.00 35 1013.4
20260504204550 26 137 3.2 16.1 0.00 0.00 0.00 35 1013.6
20260504203048 26 229 1.6 14.5 0.00 0.00 0.00 36 1013.6
20260504201551 26 270 4.8 14.5 0.00 0.00 0.00 34 1013.8
20260504194550 26 238 1.6 14.5 0.00 0.00 0.00 36 1014.0
20260504193058 25 276 4.8 12.9 0.00 0.00 0.00 35 1014.2
20260504191608 26 39 3.2 12.9 0.00 0.00 0.00 36 1014.4
20260504190055 25 32 1.6 11.3 0.00 0.00 0.00 35 1014.7
20260504184552 25 221 4.8 11.3 0.00 0.00 0.00 35 1014.8
20260504183055 25 211 1.6 12.9 0.00 0.00 0.00 35 1015.1
20260504181553 25 269 1.6 9.7 0.00 0.00 0.00 35 1015.2
20260504180051 25 290 1.6 12.9 0.00 0.00 0.00 34 1015.5
20260504174555 24 51 3.2 12.9 0.00 0.00 0.00 36 1015.5
20260504173051 24 213 1.6 9.7 0.00 0.00 0.00 36 1015.6
20260504171553 24 96 3.2 16.1 0.00 0.00 0.00 36 1015.7
20260504081549 3 0 0.0 0.0 0.00 0.00 0.00 92 1016.6
20260504044552 7 0 0.0 0.0 0.00 0.00 0.00 84 1017.0
20260504043108 7 0 0.0 0.0 0.00 0.00 0.00 82 1017.1
20260504041550 7 0 0.0 0.0 0.00 0.00 0.00 82 1016.7
20260504040052 7 0 0.0 0.0 0.00 0.00 0.00 82 1016.5
20260504034551 7 0 0.0 0.0 0.00 0.00 0.00 79 1016.6
20260504033059 8 0 0.0 0.0 0.00 0.00 0.00 77 1016.7
20260504031554 8 0 0.0 0.0 0.00 0.00 0.00 78 1017.0
20260504024547 9 0 0.0 0.0 0.00 0.00 0.00 75 1016.8
20260504023047 9 0 0.0 0.0 0.00 0.00 0.00 73 1017.0
20260504021551 10 0 0.0 0.0 0.00 0.00 0.00 68 1016.7
20260504020053 10 0 0.0 0.0 0.00 0.00 0.00 66 1016.5
20260504014550 11 0 0.0 0.0 0.00 0.00 0.00 67 1016.2
20260504013113 11 0 0.0 0.0 0.00 0.00 0.00 66 1015.9
20260504011546 12 0 0.0 0.0 0.00 0.00 0.00 58 1015.9
20260504010054 12 0 0.0 0.0 0.00 0.00 0.00 56 1015.6
20260504004549 13 0 0.0 0.0 0.00 0.00 0.00 52 1015.5
20260504003049 15 0 0.0 0.0 0.00 0.00 0.00 47 1015.5
20260504001556 16 0 0.0 0.0 0.00 0.00 0.00 40 1015.2
20260504000058 18 0 0.0 1.6 0.00 0.00 0.00 36 1015.2
20260503234550 21 161 0.0 9.7 0.00 0.00 0.00 31 1015.1
20260503233042 21 0 0.0 0.0 0.00 0.00 0.00 33 1015.0
20260503231553 21 0 0.0 3.2 0.00 0.00 0.00 31 1015.0
20260503230104 21 219 0.0 9.7 0.00 0.00 0.00 32 1015.0
20260503224546 21 241 1.6 6.4 0.00 0.00 0.00 32 1015.1
20260503223107 21 274 0.0 8.0 0.00 0.00 0.00 31 1015.0
20260503221550 21 233 3.2 9.7 0.00 0.00 0.00 29 1015.1
20260503220054 21 0 0.0 12.9 0.00 0.00 0.00 30 1015.2
20260503214555 21 309 1.6 9.7 0.00 0.00 0.00 28 1015.4
20260503213050 21 248 6.4 12.9 0.00 0.00 0.00 27 1015.7
20260503211550 21 134 0.0 11.3 0.00 0.00 0.00 29 1016.0